Regional Weather Roundup
Issued by NWS

Home | Current Version | Previous Version | Text Only | Print | Product List | Glossary Off
Versions: 1 2 3 4 5 6 7 8 9 10 11 12 13 14 15 16 17 18 19 20 21 22 23 24 25 26 27 28 29 30 31 32 33 34 35 36 37 38 39 40 41 42 43 44 45 46 47 48 49 50

000
ASUS43 KMPX 242201
RWRMN
WEATHER ROUNDUP FOR MINNESOTA
NATIONAL WEATHER SERVICE TWIN CITIES/CHANHASSEN MN
500 PM CDT FRI OCT 24 2014


NOTE: "FAIR" INDICATES FEW OR NO CLOUDS BELOW 12,000 FEET WITH NO
SIGNIFICANT WEATHER AND/OR OBSTRUCTIONS TO VISIBILITY. N/A MEANS
CURRENT SKY AND/OR WEATHER CONDITIONS ARE NOT AVAILABLE.

MNZ060>063-068>070-242300-
   Twin Cities Metro

CITY           SKY/WX    TMP DP  RH WIND       PRES   REMARKS
TWIN CITIES    PTSUNNY   67  54  63 SW7       29.84R
ST PAUL        PTSUNNY   64  56  75 S5        29.84S
CRYSTAL        PTSUNNY   69  54  58 SW7       29.82S
BLAINE         PTSUNNY   68  55  64 SW5       29.83
LAKEVILLE      PTSUNNY   64  55  72 CALM      29.85R
EDEN PRAIRIE   PTSUNNY   68  54  60 W6        29.83R
SOUTH ST PAUL  PTSUNNY   65  55  69 S3        29.84S
LAKE ELMO      FAIR      61  55  82 S7        29.86R
$$
MNZ001>005-007-008-013>017-022>024-027-028-242300-
   Northwest Minnesota

CITY           SKY/WX    TMP DP  RH WIND       PRES   REMARKS
BEMIDJI        SUNNY     69  41  36 W13G20    29.75S
HALLOCK        SUNNY     68  30  24 W21       29.70R
ROSEAU         MOSUNNY   72  39  30 W15G24    29.66R
WARROAD        PTSUNNY   70  45  40 W17G31    29.65S
THIEF RVR FALL SUNNY    N/A N/A N/A W25G31    29.74R
CROOKSTON      SUNNY     72  39  30 NW26      29.76R
FOSSTON        MOSUNNY   72  39  30 W20G25    29.76R
DETROIT LAKES  MOSUNNY   68  41  37 SW6       29.81S
MOORHEAD       MOSUNNY   75  28  17 W14       29.78S
PARK RAPIDS    MOSUNNY   70  39  32 W14       29.78R
MAHNOMEN       FAIR      71  43  36 W14G22    29.77S
$$
MNZ006-009>011-018-025>026-242300-
   North Central Minnesota

CITY           SKY/WX    TMP DP  RH WIND       PRES   REMARKS
BAUDETTE       MOCLDY    70  42  36 W10G28    29.64S
FLAG ISLAND    MOCLDY    66  41  39 SW17G24   29.59F
INTL FALLS     MOCLDY    68  41  37 SW10      29.65F
WASKISH        MOSUNNY   64  45  48 SW13      29.70S
BIG FORK       PTCLDY    70  39  32 SW10G17   29.71S
LONGVILLE      SUNNY     70  39  32 SW8       29.76S
GRAND RAPIDS   SUNNY     70  39  32 SW6       29.75R
CRANE LAKE     PTCLDY    68  39  34 S3        29.68F
ORR            PTCLDY    72  36  26 SW8       29.66F
COOK           CLEAR     70  39  32 W12G18    29.70S
WALKER         FAIR      71  38  30 W12       29.76R
$$
MNZ012-019>021-037-242300-
   Northeast Minnesota

CITY           SKY/WX    TMP DP  RH WIND       PRES   REMARKS
DULUTH         CLEAR     67  50  54 SW14      29.75F
ELY            PTCLDY    68  37  32 W12       29.69F
HIBBING        CLEAR     71  38  29 W10G17    29.72F
EVELETH        CLEAR     68  41  37 SW10      29.73F
DULUTH HARBOR  CLEAR     68  54  60 SW13      29.74F
TWO HARBORS    CLEAR     72  39  30 SW9       29.71F
SILVER BAY     CLEAR     66  52  59 S10       29.70F
GRAND MARAIS     N/A     51  47  86 SW3       29.72F
G MARAIS ARPRT PTCLDY    55  45  67 S8        29.74F
$$
MNZ029>031-032-039>041-046>048-054>057-064-242300-
   West Central Minnesota

CITY           SKY/WX    TMP DP  RH WIND       PRES   REMARKS
FERGUS FALLS   MOSUNNY   72  37  28 W7        29.81S
WHEATON        MOSUNNY   72  43  35 W8        29.84S
MORRIS         SUNNY     73  43  33 W12       29.82F
ALEXANDRIA     MOSUNNY   70  41  34 W10       29.84S
ELBOW LAKE     FAIR      71  43  35 W9        29.82S
WADENA         MOSUNNY   66  43  42 W7        29.81R
GLENWOOD       MOSUNNY   72  41  33 W12       29.84S
APPLETON       MOSUNNY   77  37  24 W9        29.84R
BENSON         MOSUNNY   73  45  35 W6        29.84S
ORTONVILLE     MOSUNNY   75  37  25 W6        29.84S
MADISON        PTSUNNY   79  37  22 NW9       29.85R
WILLMAR          N/A     72  37  28 W8        29.86R
$$
MNZ033>034-036-042>043-049>051-058-059-242300-
   Central Minnesota

CITY           SKY/WX    TMP DP  RH WIND       PRES   REMARKS
ST CLOUD       PTSUNNY   71  49  45 SW7       29.82S
SAUK CENTRE    FAIR      69  43  38 W9        29.83S
PAYNESVILLE    PTSUNNY   69  38  32 SW8       29.84S
AITKIN         SUNNY     70  46  43 S7        29.77S
PINE RIVER     MOSUNNY   70  43  37 W7        29.81S
BRAINERD       SUNNY     70  37  29 W10       29.79S
STAPLES        MOSUNNY   66  39  37 W8        29.80S
LONG PRAIRIE   FAIR      68  41  37 W7        29.83S
LITTLE FALLS   MOSUNNY   70  36  28 W9        29.82R
LITCHFIELD     PTSUNNY   72  45  37 W5        29.85S
BUFFALO        PTSUNNY   66  52  59 S6        29.84F
MAPLE LAKE     PTSUNNY   69  54  58 S3        29.84F
$$
MNZ037-044-045-052-053-242300-
   East Central Minnesota

CITY           SKY/WX    TMP DP  RH WIND       PRES   REMARKS
PRINCETON      PTSUNNY   68  52  56 S6        29.82F
MORA           SUNNY     63  52  67 SW8       29.82S
CAMBRIDGE      MOSUNNY   68  54  60 S7        29.80F
RUSH CITY      MOSUNNY   64  52  65 SW3       29.82S
MOOSE LAKE     SUNNY     64  50  59 S7        29.76S
HINCKLEY       FAIR      64  54  68 SW7       29.80S
CLOQUET        CLEAR     66  48  52 S9        29.76S
MCGREGOR       SUNNY     66  48  52 SW8       29.77F
$$
MNZ071>073-080-081-089-090-097-098-242300-
   Southwest Minnesota

CITY           SKY/WX    TMP DP  RH WIND       PRES   REMARKS
MONTEVIDEO     PTSUNNY   79  43  27 NW3       29.85S
GRANITE FALLS  PTSUNNY   75  38  26 W6        29.86S
CANBY          MOSUNNY   75  39  27 W13       29.88R
MARSHALL       MOSUNNY   77  37  24 NW16      29.86R
REDWOOD FALLS  MOSUNNY   74  43  32 W8        29.85R
OLIVIA         MOSUNNY   70  46  43 W3        29.85S
PIPESTONE      SUNNY     73  36  25 NW8       29.91R
WINDOM         SUNNY     73  37  27 W10       29.88R
WORTHINGTON    SUNNY     73  36  25 NW13      29.90R
JACKSON        SUNNY     75  34  22 W10       29.89R
TRACY          MOSUNNY   76  38  25 W7        29.88R
SLAYTON        SUNNY     73  37  26 W10G16    29.91R
$$
MNZ065>067-074>077-082>085-091>093-242300-
   South Central Minnesota

CITY           SKY/WX    TMP DP  RH WIND       PRES   REMARKS
MANKATO        MOSUNNY   68  50  52 W8        29.86R
NEW ULM        PTSUNNY   70  52  52 NW8       29.86R
ST JAMES       MOSUNNY   75  39  27 W10       29.88R
FAIRMONT       MOSUNNY   73  18  12 W9        29.88R
GLENCOE        PTSUNNY   70  55  57 W3        29.84S
FARIBAULT      PTSUNNY   66  55  68 SW5       29.86R
OWATONNA       PTSUNNY   66  55  68 SW3       29.87R
WASECA         MOSUNNY   68  46  45 W7        29.89R
ALBERT LEA     PTSUNNY   68  55  64 W6        29.87R
$$
MNZ078>079-086>088-094>096-242300-
   Southeast Minnesota

CITY           SKY/WX    TMP DP  RH WIND       PRES   REMARKS
ROCHESTER      CLOUDY    60  55  83 SW8       29.89R
RED WING       CLOUDY    61  55  82 CALM      29.86R
STANTON        PTSUNNY   64  55  74 SW5       29.85R
DODGE CENTER   PTSUNNY   61  57  88 SW7       29.87S FOG
WINONA         CLOUDY    61  55  82 CALM      29.88R
AUSTIN         PTSUNNY   59  57  94 CALM      29.88R FOG
PRESTON        CLOUDY    57  55  91 SW7       29.89S
$$
ABBREVIATIONS USED IN REMARKS
   TC - TEMPERATURES IN CELSIUS
  WCI - WIND CHILL INDEX
   HX - HEAT INDEX
  VSB - VISIBILITY
$$



USA.gov is the U.S. government's official web portal to all federal, state and local government web resources and services.